Tracking 34401 objects as of 17-Jun-2026
HD Live streaming from Space Station
objects crossing your sky now

ATLAS 5 CENTAUR DEB

Track ATLAS 5 CENTAUR DEB now!


NORAD ID: 44682
Int'l Code: 2018-079AU
Perigee: 8,834.3 km
Apogee: 35,113.4 km
Inclination: 13.4 °
Period: 791.5 minutes
Semi major axis: 28344 km
RCS: Unknown
Launch date: October 17, 2018
Source: United States (US)
Launch site: AIR FORCE EASTERN TEST RANGE (AFETR)

Note: This is SATELLITE DEBRIS
Your satellite tracking list
Your tracking list is empty




NASA's NSSDC Master Catalog

Two Line Element Set (TLE):
1 44682U 18079AU  26166.83015486 -.00000115  00000-0  00000+0 0  9992
2 44682  13.3863  36.2829 4635607 311.4193  17.0537  1.81924592 46838
Source of the keplerian elements: AFSPC